Find Starlink 5604

NORAD ID: 55420 Int'l Des: 2023-014 Owner: SPXS Country: US Constellation: starlink operational
LEOCIRCULAR

Live-Position

3D-Globus wird geladen...

Über Starlink 5604

Beschreibung wird geladen...

Nächste Überflüge

Passes for default location (London). Set your location on the main map for personalized predictions.

Höhenverlauf

Loading altitude history...

Zweizeiliger Elementsatz

1 55420U 23014AF 26104.57577339 .00000311 00000-0 33888-4 0 9994
2 55420 69.9984 313.9995 0002707 267.5763 92.5086 14.98321693177926
Epoch: 14. Apr. 2026 • Age: 8 hours

Aktueller Status

Höhe 582.0 km
Geschwindigkeit 7.57 km/s
Subsatellitenpunkt 53.75°N, 168.25°E
Startdatum 31. Jan. 2023
Alter 3.2 years
Typ internet

Technische Details

Klassifizierung Payload
Masse 305.00 kg
Trockenmasse 290.00 kg
Gesamtmasse 305.00 kg
Länge 0.20 m
Durchmesser 2.80 m
Spannweite 9.00 m
Form Box + pan
Hersteller SPXS
Bus-Typ Starlink
Phasenstatus In Orbit
Besitzer/Staat SPXS/US

Most Searched